Home   Weather   Basse-Terre   Past weeks

Flag for Guadeloupe Past Weather in Basse-Terre, Guadeloupe — Yesterday and Last 2 Weeks

Now
84 °F

Partly sunny.


Feels Like: 91 °F
Forecast: 78 / 84 °F
Wind: 12 mph from East

Location: Le Raizet - Guadeloupe

Current Time: Jun 28, 2017 at 8:20:06 am

Latest Report: Jun 28, 2017 at 8:00 am


Visibility: N/A

Pressure: 30.01 "Hg

Humidity: 70%

Dew Point: 73 °F

Location of Basse-TerreLocation

Past Weather in Basse-Terre — Graph

°F

Basse-Terre Temperature Yesterday

Maximum temperature yesterday: 88 °F (at 10:30 am)
Minimum temperature yesterday: 75 °F (at 1:30 am)
Average temperature yesterday: 82 °F

High & Low Weather Summary for the Past Weeks

 TemperatureHumidityPressure
High90 °F (Jun 16, 12:00 pm)100% (Jun 18, 8:00 pm)30.07 "Hg (Jun 18, 8:00 pm)
Low73 °F (Jun 18, 7:00 pm)49% (Jun 16, 12:00 pm)29.89 "Hg (Jun 23, 3:30 am)
Average81 °F78%29.99 "Hg
* Reported Jun 13 7:00 am — Jun 28 7:00 am, Basse-Terre. Weather by CustomWeather, © 2017

Note: Actual official high and low records may vary slightly from our data, if they occured in-between our weather recording intervals... More about our weather records

Advertising

Basse-Terre Weather History for the Previous 24 Hours

Scroll right to see more
 ConditionsComfort  
Time TempWeatherWind HumidityBarometerVisibility
7:00 am
Wed, Jun 28
82 °FPassing clouds.8 mph74%30.01 "HgN/A
6:30 am81 °FPassing clouds.5 mph84%29.98 "HgN/A
6:00 am79 °FSunny.6 mph84%29.98 "Hg10 mi
5:30 am79 °FPassing clouds.5 mph84%29.98 "HgN/A
5:00 am79 °FClear.6 mph84%29.98 "Hg10 mi
4:30 am79 °FClear.5 mph84%29.95 "Hg10 mi
4:00 am79 °FPassing clouds.5 mph89%29.95 "HgN/A
3:30 am79 °FPassing clouds.6 mph84%29.95 "HgN/A
3:00 am79 °FClear.6 mph89%29.95 "Hg10 mi
2:30 am79 °FPassing clouds.6 mph89%29.95 "HgN/A
2:00 am79 °FClear.6 mph89%29.95 "Hg10 mi
1:30 am79 °FPassing clouds.6 mph89%29.98 "HgN/A
1:00 am81 °FPassing clouds.6 mph79%29.98 "HgN/A
12:30 am81 °FPassing clouds.8 mph84%29.98 "HgN/A
12:00 am81 °FPartly cloudy.5 mph84%29.98 "HgN/A
11:30 pm
Tue, Jun 27
81 °FPassing clouds.7 mph84%30.01 "HgN/A
11:00 pm81 °FPassing clouds.6 mph84%30.01 "HgN/A
10:30 pm81 °FPassing clouds.5 mph84%30.01 "HgN/A
10:00 pm79 °FPassing clouds.5 mph89%30.01 "HgN/A
9:30 pm81 °FPassing clouds.3 mph84%30.01 "HgN/A
9:00 pm81 °FPassing clouds.3 mph84%29.98 "HgN/A
8:30 pm81 °FClear.6 mph84%29.98 "Hg10 mi
8:00 pm81 °FPassing clouds.6 mph79%29.98 "HgN/A
7:30 pm81 °FPassing clouds.7 mph79%29.98 "HgN/A
7:00 pm82 °FClear.9 mph74%29.95 "Hg10 mi
6:30 pm82 °FPassing clouds.10 mph74%29.95 "HgN/A
6:00 pm84 °FPartly sunny.13 mph70%29.95 "HgN/A
5:30 pm84 °FPassing clouds.10 mph70%29.95 "HgN/A
5:00 pm86 °FPartly sunny.13 mph66%29.95 "HgN/A
4:30 pm86 °FPartly sunny.13 mph62%29.95 "HgN/A
4:00 pm88 °FPartly sunny.10 mph62%29.95 "HgN/A
3:30 pm86 °FBroken clouds.12 mph66%29.95 "HgN/A
3:00 pm88 °FBroken clouds.10 mph59%29.98 "HgN/A
2:30 pm88 °FPartly sunny.12 mph59%29.98 "HgN/A
2:00 pm88 °FBroken clouds.12 mph62%29.98 "HgN/A
1:30 pm88 °FPartly sunny.13 mph62%29.98 "HgN/A
1:00 pm88 °FScattered clouds.12 mph55%29.98 "HgN/A
12:30 pm88 °FScattered clouds.13 mph55%30.01 "HgN/A
12:00 pm88 °FPassing clouds.10 mph55%30.01 "HgN/A
11:30 am88 °FBroken clouds.12 mph59%30.01 "HgN/A
11:00 am88 °FScattered clouds.10 mph59%30.01 "HgN/A
10:30 am88 °FPartly sunny.13 mph59%30.01 "HgN/A
10:00 am86 °FPartly sunny.13 mph62%30.01 "HgN/A
9:30 am86 °FBroken clouds.9 mph62%30.01 "HgN/A
9:00 am86 °FPassing clouds.12 mph62%30.01 "HgN/A
8:30 am84 °FPartly sunny.10 mph70%30.01 "HgN/A
8:00 am84 °FPassing clouds.7 mph74%30.01 "HgN/A
Weather by CustomWeather, © 2017

See weather overviewHow to use our weather pages